SL-14 DEB, 45357

Orbit data source: Space-Track

SL-14 DEB, 45357 is space debris in LEO originally from a launch on Thu, 15 Aug 1991 UTC launched from the Plesetsk Missile And Space Complex (PKMTR). Debris objects in space refer to the collection of defunct objects orbiting the Earth. Examples of debris include non-operational satellites, rocket bodies, and fragments generated from explosions, collisions, or faulty payload assembly.

Loading next visibility...
Identifier
45357, 1991-056CR
Orbit
LEO
Country
Flag of CISCIS
Related business
Manufacturer
Unknown
Mission
Spacecraft
Bus & Motor
Unknown
Mass
Unknown
Launch date (UTC)
1991-08-15 (34 years ago)
Launch vehicle
Unknown
Launch site
Plesetsk Missile And Space Complex (PKMTR)
Object type
Payload
Rocket body
Debris
Shape & HBR
Unknown
Radar Cross Section
Small (<0.1 m²)

Expand to show TLE details & history
Last TLE update: 1 day ago

TLE from 1 day ago
0 SL-14 DEB
1 45357U 91056CR  25260.50610542  .00000998  00000-0  18845-2 0  9997
2 45357  82.5646 291.9365 0071185 244.0934 115.2850 13.36543676269823
Epoch: 2025-09-17T12:08Z
TLE epoch observation values (Epoch: 2025-09-17T12:08:47.508Z)
Latitude
-0.00006°
Longitude
113.05746°
Altitude
1,148.135 km
Speed
7.268 km/s
True Right ascension
19h 27m 44s
True Declination
0° 00' 00"
Sunlit
Object was in daylight at epoch
Visualization orbit readout
Latitude
Unknown
Longitude
Unknown
Altitude
Unknown
Speed
Unknown
Apparent Right ascension
Unknown
Apparent Declination
Unknown
Sunlit
N/A
Visualization observer readout
Local Sidereal Time
12:07:32
Azimuth
Unknown
Elevation
Unknown
Doppler factor
Unknown
Orbital elements
Apogee altitude
1,172.77 km
Perigee altitude
1,066.028 km
Semi-major axis
7,497.536 km
Eccentricity
0.00712
Inclination
82.5646°
RAAN
291.9365°
Arg. of periapsis
244.0934°
True anomaly
116.01976°
Mean anomaly
115.285°
Eccentric anomaly
115.65266°
Mean motion
3.34322 °/min
Orbital period
107.68 mins
BSTAR
0.0018845
Loading maneuver chart data...
Computing Atmospheric mass density...
Loading historical data...
Loading historical data...
Loading historical data...
Loading historical data...
Loading historical data...
Loading historical data...
Loading historical data...

Documentation

Showing up to 5 results
|